sat.trackr.live / text

‹ back to catalog

STARLINK-36289

NORAD 67827 · 2026-033G

PAYLOAD ACTIVE UNKNOWN

§ Identity

Operator
Country
US
Launch date
2026-02-16
Launch site
AFETR
Launch vehicle
Mass (kg)
RCS (m²)

Purposes: comms

External: N2YO · Heavens-Above · Gunter

§ Orbital elements

Epoch: 2026-09-19T23:26:23.404128Z

Period
94.27 min
Inclination
42.9964°
Eccentricity
0.0000846
Mean motion
15.27591338 rev/d
Perigee alt
482.4 km
Apogee alt
483.6 km
Semi-major
6,861.2 km
B*
4.3182e-4
RAAN
250.1837°
Arg perigee
317.0966°
Mean anomaly
42.9819°
Rev number
3,438

§ Raw data

STARLINK-362891 67827U 26033G   26262.97665977  .00011644  00000+0  43182-3 0  99942 67827  42.9964 250.1837 0000846 317.0966  42.9819 15.27591338 34387

JSON: /api/v1/satellites/67827 · /tle

For live sub-satellite position, see the globe view (requires WebGL).

§ Visibility from observer

Set your observer location to see the next 7 days of passes ≥ 10°. The values pass through the URL so the page stays shareable.

No JS? Fill the form by hand. The geolocation button needs JavaScript.